User: anonymous   Login
Location: Melbourne
(37.8170°S, 144.9670°E)
Time: 11:08:31
(UTC+10:00)
Language:

Aureole 2 Rocket - Orbit

View from above orbital plane
View from above orbital plane
View from above satellite
View from above satellite

Ground track
Ground track

The orbit data is extracted from the following two-line orbital elements,

1 07004U 73107B   16238.82695467  .00007758  00000-0  13220-3 0  9994
2 07004  73.9392 341.5672 0201162 286.5512  71.3680 15.32033855191860
Epoch (UTC): 25 August 2016 19:50:48
Eccentricity: 0.0201162
inclination: 73.9392°
perigee height: 332 km
apogee height: 607 km
right ascension of ascending node: 341.5672°
argument of perigee: 286.5512°
revolutions per day: 15.32033855
mean anomaly at epoch: 71.3680°
orbit number at epoch: 19186

The dashed part of the orbit path shows where the satellite is in the earth's shadow,  

DLR